sat.trackr.live / text

‹ back to catalog

STARLINK-36323

NORAD 68259 · 2026-054AD

PAYLOAD ACTIVE UNKNOWN

§ Identity

Operator
Country
US
Launch date
2026-03-17
Launch site
AFETR
Launch vehicle
Mass (kg)
RCS (m²)

Purposes: comms

External: N2YO · Heavens-Above · Gunter

§ Orbital elements

Epoch: 2026-05-25T03:38:09.467808Z

Period
93.37 min
Inclination
53.1590°
Eccentricity
0.0001489
Mean motion
15.42177022 rev/d
Perigee alt
438.7 km
Apogee alt
440.7 km
Semi-major
6,817.8 km
B*
5.5656e-4
RAAN
299.2356°
Arg perigee
107.9456°
Mean anomaly
252.1712°
Rev number
1,073

§ Raw data

STARLINK-363231 68259U 26054AD  26145.15149847  .00023897  00000+0  55656-3 0  99922 68259  53.1590 299.2356 0001489 107.9456 252.1712 15.42177022 10737

JSON: /api/v1/satellites/68259 · /tle

For live sub-satellite position, see the globe view (requires WebGL).

§ Visibility from observer

Set your observer location to see the next 7 days of passes ≥ 10°. The values pass through the URL so the page stays shareable.

No JS? Fill the form by hand. The geolocation button needs JavaScript.